[[{"header":{"parameterUnit":"m.s-1","parameterCategory":2,"la1":30.2991,"la2":30.254,"lo1":-89.0895,"lo2":-89.0444,"dy":0.0017,"dx":0.0017,"nx":28,"ny":28,"refTime":"2024-05-30T03:00:00:Z","depth":"0","parameterNumber":2,"parameterNumberName":"U-component_of_CURRENTS"},"data":[0,0,0,0,0,0,0,0,0,0,0,0,0,0,0,0,0,0,0,0,0,0,0,0,0,0,0,0,0,0,0,0,0,0,0,0,0,0,0,0,0,0,0,0,0,0,0,0,0,0,0,0,0,0,0,0,0,0,0.2464,0.2463,0,0.2425,0.2424,0.2424,0.2392,0.2392,0.2392,0.2392,0.2387,0.2388,0.2388,0,0,0,0,0,0,0,0,0,0,0,0,0,0.2473,0.2474,0.2464,0.2463,0.2463,0.2425,0.2424,0.2424,0.2392,0.2392,0.2392,0.2391,0.2387,0.2388,0.2388,0,0,0,0,0,0,0,0,0,0,0,0,0,0.2455,0.2474,0.2464,0.2443,0.2441,0.2425,0.2424,0.2424,0.2392,0.2392,0.2392,0.2391,0.2387,0.2388,0.2388,0.2396,0,0,0.2388,0.2388,0,0,0,0,0,0,0,0,0.2456,0.2454,0.2447,0.2445,0.2442,0.2414,0.2426,0.2416,0.2393,0.241,0.2392,0.2391,0.24,0.2399,0.2391,0.2396,0.2396,0.2388,0.2388,0.2388,0.2389,0,0,0,0,0,0,0,0.2457,0.2456,0.2447,0.2446,0.2444,0.2423,0.242,0.2424,0.2408,0.2408,0.2406,0.2403,0.2399,0.2391,0.2391,0.2396,0.2388,0.2388,0.2389,0.2389,0.2444,0.2445,0,0,0,0,0,0,0.2466,0.2457,0.2449,0.2446,0.2449,0.2424,0.242,0.2423,0.2407,0.2404,0.2404,0.2402,0.2391,0.2391,0.2391,0.2429,0.2388,0.2389,0.2389,0.2442,0.2444,0.2445,0,0,0,0,0,0,0.2467,0.2466,0.245,0.2451,0.2448,0.2424,0.2427,0.2422,0.2417,0.2403,0.2401,0.2404,0.2391,0.2391,0.2406,0.2427,0.2389,0.2389,0.2441,0.2443,0.2445,0.2486,0,0,0,0,0,0,0.2467,0.2467,0.2473,0.2452,0.2448,0.2445,0.2427,0.2422,0.2416,0.2413,0.2403,0.2401,0.239,0.2406,0.2406,0.2427,0.2389,0.2439,0.2442,0.2444,0.2483,0.249,0.2495,0,0,0,0,0,0.2468,0.2471,0.2474,0.2473,0.2458,0.2446,0.2442,0.2423,0.2417,0.2417,0.2416,0.2402,0.2422,0.2407,0.2407,0.2428,0.2438,0.2441,0.2444,0.2481,0.2488,0.2495,0,0,0,0,0,0,0.246,0.2468,0.247,0.2471,0.2465,0.2441,0.2437,0.2429,0.2427,0.2429,0.2416,0.2415,0.244,0.2431,0.2414,0.2454,0.2429,0.2432,0.2457,0.2464,0.247,0.2463,0.2389,0,0,0,0,0,0.2468,0.2483,0.2477,0.2478,0.2478,0.2463,0.2457,0.2447,0.2441,0.2438,0.2432,0.2435,0.2452,0.2455,0.2462,0.2479,0.248,0.2496,0.2501,0.2506,0.2502,0.2539,0.2547,0.2455,0.2455,0.2455,0,0,0.2459,0.247,0.2473,0.2479,0.2473,0.2472,0.2458,0.2453,0.2454,0.2441,0.2444,0.2457,0.2464,0.2486,0.2496,0.2479,0.2533,0.251,0.2514,0.2507,0.2543,0.2552,0.2559,0.2457,0.2457,0.2457,0,0,0.245,0.2467,0.2476,0.2479,0.2483,0.248,0.2483,0.2471,0.247,0.248,0.2482,0.2507,0.2512,0.2527,0.2535,0.2579,0.2567,0.2584,0.2601,0.2637,0.2645,0.2652,0.2661,0.2668,0.2582,0.2582,0.2582,0,0.2437,0.2454,0.2472,0.2481,0.2483,0.2487,0.2487,0.249,0.2484,0.2493,0.2487,0.2525,0.2532,0.2572,0.2589,0.2592,0.26,0.2573,0.2644,0.2651,0.2657,0.2665,0.2673,0.2584,0.2584,0.2584,0.2583,0,0.2435,0.2449,0.2453,0.2476,0.2483,0.2484,0.2496,0.2506,0.2513,0.2516,0.2555,0.2572,0.2592,0.2609,0.2611,0.2664,0.2652,0.2652,0.2624,0.2669,0.2675,0.2682,0.2587,0.2587,0.2586,0.2585,0,0,0.2392,0.2443,0.2442,0.2453,0.2484,0.248,0.2507,0.2526,0.2546,0.2558,0.2584,0.2625,0.2636,0.2648,0.2664,0.2696,0.2751,0.2692,0.2692,0.2695,0.2815,0.2787,0.2792,0.2767,0.2768,0.2769,0.2801,0,0.2379,0.24,0.2434,0.2442,0.2448,0.248,0.2505,0.2529,0.2556,0.2585,0.2621,0.2654,0.2651,0.2674,0.2706,0.2747,0.2772,0.2741,0.2775,0.2776,0.2742,0.28,0.273,0.275,0.2807,0.2808,0.2809,0,0.2358,0.2382,0.2395,0.2436,0.2442,0.2451,0.2497,0.2518,0.2577,0.2609,0.2651,0.2675,0.2729,0.2723,0.2793,0.2774,0.2794,0.2818,0.282,0.2781,0.2761,0.2716,0.276,0.2704,0.2819,0.2819,0.2818,0,0.2311,0.2346,0.236,0.237,0.2421,0.2434,0.2458,0.2517,0.2542,0.2622,0.2649,0.2716,0.2745,0.2793,0.283,0.282,0.2903,0.2893,0.2881,0.2878,0.2817,0.2806,0.2804,0.2941,0.2941,0.2941,0.294,0,0.2284,0.2285,0.2335,0.2339,0.2355,0.2399,0.2426,0.2475,0.2541,0.2576,0.2645,0.269,0.2766,0.2813,0.2847,0.2884,0.2913,0.2892,0.2894,0.2829,0.2819,0.2765,0.2722,0.2942,0.2941,0.2941,0.2941,0,0.2223,0.2262,0.2268,0.2319,0.2332,0.2335,0.239,0.2411,0.2489,0.2539,0.2563,0.2671,0.2753,0.2809,0.2899,0.2895,0.2866,0.2945,0.2851,0.2841,0.2767,0.2728,0.2601,0.2523,0.2938,0.2937,0.2937,0,0.2193,0.2196,0.2235,0.2238,0.2256,0.2275,0.2294,0.2376,0.2406,0.2525,0.2542,0.2643,0.2712,0.2824,0.2878,0.2933,0.2845,0.2868,0.284,0.2762,0.272,0.2596,0.253,0.2773,0.2771,0.277,0.2769,0,0.2133,0.2148,0.2162,0.217,0.218,0.219,0.2222,0.2239,0.2339,0.2401,0.2487,0.2555,0.269,0.2743,0.2822,0.2847,0.2732,0.2841,0.2795,0.262,0.2449,0.2375,0.2737,0.2757,0.2758,0.2759,0.2759,0.276,0.2075,0.2068,0.2089,0.2084,0.2096,0.2085,0.2067,0.2124,0.2168,0.2236,0.2379,0.246,0.2603,0.2728,0.2723,0.2695,0.2657,0.264,0.2608,0.2496,0.2388,0.2712,0.2715,0.2715,0.2716,0.2717,0.2717,0,0.1987,0.1994,0.1997,0.1985,0.1957,0.1994,0.2002,0.1977,0.1997,0.212,0.2204,0.2367,0.244,0.2528,0.2586,0.2494,0.2366,0.2418,0.2239,0.2194,0.2531,0.2495,0.2408,0.2408,0.2408,0.2408,0.2408,0.2408,0.1942,0.1912,0.1914,0.1842,0.1833,0.1766,0.1747,0.1747,0.1804,0.1884,0.1984,0.2114,0.2322,0.243,0.2392,0.2332,0.2135,0.203,0.1999,0.227,0.2289,0.2306,0.2264,0.213,0.213,0.1595,0.1591,0.1588]},{"header":{"parameterUnit":"m.s-1","parameterCategory":2,"la1":30.2991,"la2":30.254,"lo1":-89.0895,"lo2":-89.0444,"dy":0.0017,"dx":0.0017,"nx":28,"ny":28,"refTime":"2024-05-30T03:00:00:Z","depth":"0","parameterNumber":3,"parameterNumberName":"V-component_of_CURRENTS"},"data":[0,0,0,0,0,0,0,0,0,0,0,0,0,0,0,0,0,0,0,0,0,0,0,0,0,0,0,0,0,0,0,0,0,0,0,0,0,0,0,0,0,0,0,0,0,0,0,0,0,0,0,0,0,0,0,0,0,0,0.0174,0.0173,0,0.0121,0.0121,0.012,0.0085,0.0085,0.0085,0.0085,-0.0001,-0.0004,-0.0006,0,0,0,0,0,0,0,0,0,0,0,0,0,0.0214,0.0213,0.0174,0.0173,0.0173,0.0121,0.0121,0.012,0.0086,0.0085,0.0085,0.0085,-0.0001,-0.0003,-0.0006,0,0,0,0,0,0,0,0,0,0,0,0,0,0.0181,0.0213,0.0174,0.015,0.0148,0.0122,0.0121,0.012,0.0086,0.0085,0.0085,0.0085,0.0,-0.0003,-0.0006,-0.0023,0,0,-0.0016,-0.0018,0,0,0,0,0,0,0,0,0.0183,0.018,0.0154,0.0152,0.0149,0.0111,0.0103,0.0071,0.0086,0.0108,0.0085,0.0085,0.0034,0.0028,0.0017,-0.0027,-0.0031,-0.0017,-0.0019,-0.002,-0.0021,0,0,0,0,0,0,0,0.0186,0.0182,0.0152,0.0154,0.015,0.0132,0.0127,0.0097,0.0071,0.0106,0.0104,0.01,0.0032,0.002,0.0015,-0.0032,-0.0017,-0.0019,-0.0021,-0.0023,-0.0087,-0.0087,0,0,0,0,0,0,0.0196,0.0184,0.0153,0.015,0.0167,0.0132,0.0126,0.0122,0.0072,0.0065,0.01,0.0098,0.0026,0.0019,0.0012,0.0007,-0.002,-0.0023,-0.0025,-0.0087,-0.0087,-0.0087,0,0,0,0,0,0,0.0197,0.0194,0.0156,0.0167,0.0161,0.0132,0.0127,0.0121,0.0113,0.0068,0.006,0.0098,0.0026,0.0016,-0.0006,0.0003,-0.0025,-0.0028,-0.0088,-0.0087,-0.0087,-0.0013,0,0,0,0,0,0,0.0199,0.0195,0.0197,0.0168,0.0161,0.0148,0.0127,0.012,0.0111,0.0109,0.0063,0.0055,0.0025,-0.0001,-0.0009,-0.0002,-0.003,-0.0088,-0.0088,-0.0087,-0.0016,-0.001,-0.0005,0,0,0,0,0,0.02,0.0208,0.0197,0.0194,0.0164,0.0149,0.0144,0.0121,0.0112,0.0112,0.0084,0.0057,-0.0004,-0.0003,-0.0013,-0.0007,-0.0088,-0.0088,-0.0087,-0.0018,-0.0011,-0.0006,0,0,0,0,0,0,0.0228,0.0204,0.0192,0.0192,0.0175,0.0144,0.0143,0.0127,0.0105,0.0103,0.006,0.005,0.0033,0.0002,0.0004,-0.0025,-0.0051,-0.0052,0.0005,0.0011,0.0016,0.0039,-0.0033,0,0,0,0,0,0.0235,0.0233,0.0207,0.0208,0.0202,0.0173,0.0165,0.015,0.0126,0.0116,0.0086,0.0053,0.0026,0.0012,-0.0019,-0.0033,-0.0057,-0.0037,-0.0032,-0.0027,-0.0015,-0.0034,-0.0029,-0.0085,-0.0085,-0.0085,0,0,0.0246,0.0233,0.0232,0.0214,0.0198,0.0199,0.0168,0.016,0.0162,0.011,0.0103,0.0069,0.0026,0.0011,0.0,-0.0012,-0.0026,-0.0026,-0.0022,-0.0013,-0.0033,-0.0027,-0.0022,-0.0084,-0.0085,-0.0085,0,0,0.0272,0.0257,0.0266,0.0255,0.0238,0.0221,0.0223,0.0195,0.0184,0.017,0.0136,0.0114,0.0068,0.0047,0.0028,0.0043,0.0002,0.0027,0.0073,0.0055,0.006,0.0064,0.0035,0.0035,0.0031,0.0031,0.0031,0,0.0286,0.0293,0.0267,0.0274,0.0274,0.0237,0.0251,0.0234,0.0203,0.0201,0.0178,0.0126,0.0088,0.0079,0.0083,0.0057,0.0035,0.0056,0.0064,0.0068,0.007,0.0039,0.0039,0.0035,0.0034,0.0034,0.0034,0,0.032,0.0325,0.0331,0.0329,0.0326,0.033,0.0307,0.03,0.028,0.0262,0.0245,0.0195,0.0168,0.0149,0.0119,0.0121,0.0094,0.0074,0.0054,0.0081,0.0045,0.0044,0.004,0.0039,0.0038,0.0037,0,0,0.035,0.0354,0.0356,0.037,0.0356,0.036,0.0364,0.036,0.0372,0.0331,0.0341,0.0291,0.0263,0.0241,0.0199,0.0182,0.0176,0.0142,0.014,0.0123,0.0129,0.0117,0.0113,0.0158,0.0159,0.0159,0.0093,0,0.0384,0.0417,0.0407,0.0441,0.0458,0.0433,0.0443,0.0434,0.0418,0.0416,0.0365,0.0352,0.0298,0.0287,0.0263,0.0201,0.0177,0.0195,0.0096,0.0093,0.0088,0.0113,0.0136,0.0081,0.0092,0.0092,0.0091,0,0.042,0.0439,0.0479,0.0504,0.051,0.0521,0.0539,0.0547,0.053,0.0517,0.0494,0.0448,0.0415,0.0364,0.0279,0.0293,0.022,0.0167,0.0162,0.0128,0.008,0.0055,0.0077,-0.0032,0.0089,0.0089,0.0089,0,0.0461,0.0491,0.0529,0.0535,0.0553,0.0567,0.0579,0.0578,0.0599,0.0585,0.0591,0.0535,0.0513,0.0424,0.0311,0.0294,0.0216,0.0175,0.0092,0.0089,0.0078,0.0074,-0.0006,0.0116,0.0116,0.0117,0.0117,0,0.0501,0.0532,0.055,0.057,0.062,0.0617,0.0665,0.0667,0.0682,0.0722,0.0649,0.0661,0.0529,0.0463,0.0345,0.0226,0.024,0.011,0.008,0.0102,0.0102,-0.002,-0.0096,0.0114,0.0115,0.0115,0.0116,0,0.0538,0.0548,0.0596,0.0626,0.064,0.0678,0.0725,0.0763,0.0764,0.0814,0.0813,0.0761,0.0677,0.0535,0.0395,0.028,0.0093,0.0107,0.0139,0.0114,-0.0072,-0.0145,-0.0262,-0.0313,0.0,-0.0,-0.0001,0,0.0559,0.0585,0.0639,0.0674,0.0688,0.0739,0.0779,0.0804,0.0853,0.0882,0.0915,0.0848,0.0822,0.0607,0.0399,0.0196,0.0077,0.0071,0.0043,-0.0068,-0.0172,-0.0216,-0.0254,0.0046,0.0046,0.0046,0.0046,0,0.0598,0.0615,0.0654,0.0725,0.0775,0.0838,0.09,0.095,0.0991,0.1031,0.1078,0.1062,0.0864,0.0681,0.0403,0.0256,-0.0001,0.0062,-0.0055,-0.0139,-0.0189,-0.0256,0.006,0.0046,0.0046,0.0046,0.0046,0.0046,0.0624,0.066,0.0711,0.0778,0.0842,0.0926,0.0984,0.1061,0.1147,0.1228,0.1211,0.1221,0.0956,0.0583,0.0364,-0.0008,-0.0028,-0.0121,-0.0201,-0.0236,-0.0277,0.0037,-0.0008,-0.0008,-0.0008,-0.0008,-0.0008,0,0.0652,0.0695,0.0761,0.0842,0.0915,0.0944,0.1057,0.1124,0.1234,0.133,0.1376,0.1277,0.0928,0.0571,0.0064,-0.0208,-0.0303,-0.036,-0.0418,-0.0445,-0.0165,-0.0153,-0.0225,-0.0225,-0.0225,-0.0225,-0.0225,-0.0225,0.0669,0.0729,0.0764,0.0879,0.0942,0.1042,0.1109,0.122,0.1315,0.1437,0.1479,0.1494,0.1243,0.0315,-0.0313,-0.0464,-0.0636,-0.0682,-0.0786,-0.0599,-0.0583,-0.0567,-0.0572,-0.0731,-0.0732,-0.1005,-0.1008,-0.1011]}],[{"header":{"parameterUnit":"m.s-1","parameterCategory":2,"la1":30.2991,"la2":30.254,"lo1":-89.0895,"lo2":-89.0444,"dy":0.0017,"dx":0.0017,"nx":28,"ny":28,"refTime":"2024-05-30T03:00:00:Z","depth":"2","parameterNumber":2,"parameterNumberName":"U-component_of_CURRENTS"},"data":[0,0,0,0,0,0,0,0,0,0,0,0,0,0,0,0,0,0,0,0,0,0,0,0,0,0,0,0,0,0,0,0,0,0,0,0,0,0,0,0,0,0,0,0,0,0,0,0,0,0,0,0,0,0,0,0,0,0,0.2107,0.2107,0,0.2129,0.2129,0.213,0.213,0.213,0.2129,0.2129,0.2145,0.2145,0.2146,0,0,0,0,0,0,0,0,0,0,0,0,0,0.2078,0.2078,0.2107,0.2107,0.2108,0.2129,0.2129,0.213,0.213,0.213,0.2129,0.2129,0.2144,0.2145,0.2146,0,0,0,0,0,0,0,0,0,0,0,0,0,0.2093,0.2078,0.2107,0.2111,0.2112,0.2129,0.2129,0.213,0.213,0.213,0.2129,0.2129,0.2144,0.2145,0.2146,0.2156,0,0,0.2148,0.2149,0,0,0,0,0,0,0,0,0.2092,0.2094,0.211,0.2111,0.2112,0.2128,0.2125,0.2139,0.213,0.2122,0.2129,0.2129,0.2139,0.2141,0.2143,0.2157,0.2157,0.2148,0.2149,0.2149,0.215,0,0,0,0,0,0,0,0.2091,0.2093,0.2114,0.2111,0.2112,0.2117,0.2119,0.2127,0.213,0.2122,0.2123,0.2127,0.214,0.2143,0.2144,0.2157,0.2148,0.2149,0.215,0.215,0.2221,0.2222,0,0,0,0,0,0,0.2091,0.2092,0.2114,0.2115,0.2103,0.2118,0.212,0.2122,0.213,0.2132,0.2128,0.2127,0.2141,0.2143,0.2144,0.2193,0.2149,0.215,0.2151,0.222,0.2221,0.2223,0,0,0,0,0,0,0.209,0.2092,0.2113,0.2105,0.2109,0.2119,0.2121,0.2122,0.2135,0.2135,0.2136,0.214,0.2141,0.2143,0.216,0.2192,0.215,0.2151,0.2218,0.222,0.2222,0.2267,0,0,0,0,0,0,0.2089,0.2092,0.2098,0.2105,0.2109,0.2128,0.2122,0.2123,0.2138,0.2138,0.2145,0.2146,0.2141,0.2159,0.2161,0.2192,0.2152,0.2216,0.2219,0.2221,0.2264,0.227,0.2276,0,0,0,0,0,0.2088,0.2093,0.2098,0.2101,0.2115,0.2129,0.2131,0.2137,0.2139,0.2146,0.2152,0.2146,0.2177,0.216,0.2163,0.2195,0.2215,0.2218,0.2221,0.2261,0.2269,0.2276,0,0,0,0,0,0,0.2079,0.2094,0.2099,0.2108,0.2122,0.2129,0.2141,0.2145,0.2156,0.216,0.2157,0.2158,0.2188,0.2185,0.2166,0.2224,0.2198,0.2202,0.2228,0.2236,0.2242,0.2229,0.2153,0,0,0,0,0,0.2082,0.2092,0.2106,0.2114,0.2125,0.2136,0.2145,0.2151,0.216,0.2165,0.2171,0.2184,0.2203,0.2212,0.2223,0.225,0.2246,0.2275,0.2281,0.2287,0.2279,0.2308,0.2316,0.2233,0.2233,0.2233,0,0,0.208,0.2091,0.2096,0.2114,0.2127,0.2142,0.2141,0.216,0.2174,0.2166,0.219,0.2204,0.2214,0.2246,0.226,0.2247,0.231,0.2291,0.2295,0.2284,0.2312,0.232,0.2327,0.2235,0.2235,0.2234,0,0,0.2081,0.2096,0.2105,0.212,0.2144,0.2154,0.2163,0.2181,0.2194,0.2216,0.2223,0.2251,0.2272,0.229,0.23,0.2347,0.2341,0.2362,0.2382,0.2412,0.2419,0.2425,0.2432,0.2438,0.2365,0.2365,0.2365,0,0.2081,0.2093,0.211,0.2125,0.2141,0.2162,0.2177,0.2194,0.2215,0.223,0.2228,0.228,0.2292,0.2335,0.2354,0.2361,0.2368,0.2353,0.2419,0.2425,0.243,0.2436,0.2443,0.2368,0.2367,0.2367,0.2367,0,0.2085,0.2103,0.2113,0.2139,0.2158,0.2178,0.2204,0.2227,0.2247,0.2262,0.2309,0.2328,0.2357,0.2378,0.2379,0.2433,0.2424,0.2423,0.2397,0.2441,0.2445,0.2451,0.2371,0.237,0.237,0.2369,0,0,0.2067,0.2108,0.2112,0.2127,0.217,0.218,0.2219,0.2254,0.2283,0.2309,0.2346,0.2389,0.2404,0.2417,0.2437,0.2464,0.2514,0.2462,0.2463,0.2463,0.2569,0.2536,0.2538,0.253,0.2532,0.2533,0.2558,0,0.2069,0.2092,0.2118,0.2145,0.2161,0.22,0.2234,0.2269,0.2307,0.2348,0.2381,0.2424,0.2419,0.2449,0.2475,0.2511,0.2531,0.2506,0.2531,0.2531,0.2492,0.2544,0.2358,0.2363,0.2563,0.2564,0.2564,0,0.206,0.208,0.2105,0.2151,0.2164,0.2187,0.2248,0.2281,0.2346,0.2382,0.2427,0.2453,0.2506,0.2496,0.2554,0.2542,0.2554,0.257,0.2571,0.2524,0.2508,0.2353,0.2365,0.2573,0.2573,0.2572,0.2571,0,0.2025,0.2069,0.2088,0.2103,0.216,0.2185,0.2221,0.2288,0.2321,0.2408,0.2438,0.2502,0.2534,0.2568,0.2595,0.2586,0.2649,0.264,0.2612,0.2609,0.2445,0.2425,0.267,0.2669,0.2669,0.2669,0.2669,0,0.2012,0.2024,0.2073,0.2083,0.2113,0.2164,0.221,0.2264,0.2338,0.2379,0.2448,0.2492,0.2555,0.2593,0.2613,0.263,0.2662,0.2619,0.262,0.2456,0.2438,0.2612,0.2605,0.267,0.267,0.267,0.267,0,0.1966,0.2001,0.2019,0.2077,0.2096,0.2115,0.2187,0.2217,0.2303,0.236,0.2388,0.2487,0.2557,0.2597,0.2664,0.2645,0.2675,0.2667,0.2462,0.244,0.2606,0.2601,0.2641,0.264,0.2639,0.2639,0.2638,0,0.1944,0.195,0.1997,0.2006,0.2033,0.2073,0.21,0.2191,0.2229,0.2353,0.2372,0.2466,0.2516,0.2594,0.261,0.2633,0.2671,0.2454,0.2404,0.2609,0.2606,0.2603,0.2599,0.22,0.2196,0.2193,0.219,0,0.19,0.1917,0.1933,0.1952,0.1976,0.1997,0.2048,0.2068,0.2177,0.2232,0.2313,0.2367,0.246,0.242,0.246,0.2448,0.2441,0.2389,0.266,0.2247,0.2198,0.2194,0.2204,0.2161,0.2164,0.2166,0.2167,0.2169,0.186,0.1856,0.1878,0.1885,0.1907,0.1909,0.1902,0.1963,0.2006,0.2066,0.2189,0.2208,0.2259,0.2242,0.2191,0.2157,0.2324,0.2213,0.2221,0.2233,0.2188,0.2142,0.2084,0.2086,0.2088,0.209,0.2092,0,0.1795,0.1799,0.1807,0.1807,0.1787,0.1832,0.1851,0.1827,0.1841,0.1927,0.1982,0.1871,0.1863,0.1906,0.1821,0.1837,0.1792,0.1753,0.1674,0.1707,0.1735,0.1661,0.1419,0.1416,0.1414,0.1412,0,0,0.1762,0.1736,0.1734,0.1681,0.1682,0.1633,0.1621,0.161,0.1641,0.1631,0.1637,0.1784,0.1861,0.1614,0.1597,0.1487,0.1573,0.1429,0.1978,0.1918,0.1942,0.2022,0.1949,0,0,0,0,0]},{"header":{"parameterUnit":"m.s-1","parameterCategory":2,"la1":30.2991,"la2":30.254,"lo1":-89.0895,"lo2":-89.0444,"dy":0.0017,"dx":0.0017,"nx":28,"ny":28,"refTime":"2024-05-30T03:00:00:Z","depth":"2","parameterNumber":3,"parameterNumberName":"V-component_of_CURRENTS"},"data":[0,0,0,0,0,0,0,0,0,0,0,0,0,0,0,0,0,0,0,0,0,0,0,0,0,0,0,0,0,0,0,0,0,0,0,0,0,0,0,0,0,0,0,0,0,0,0,0,0,0,0,0,0,0,0,0,0,0,0.006,0.006,0,0.0022,0.0021,0.002,-0.0007,-0.0007,-0.0007,-0.0007,-0.0088,-0.009,-0.0092,0,0,0,0,0,0,0,0,0,0,0,0,0,0.0093,0.0093,0.006,0.006,0.006,0.0022,0.0021,0.002,-0.0007,-0.0007,-0.0007,-0.0007,-0.0087,-0.0089,-0.0092,0,0,0,0,0,0,0,0,0,0,0,0,0,0.0068,0.0092,0.0061,0.0043,0.0041,0.0022,0.0021,0.002,-0.0007,-0.0007,-0.0007,-0.0007,-0.0086,-0.0089,-0.0092,-0.0109,0,0,-0.0102,-0.0103,0,0,0,0,0,0,0,0,0.0069,0.0066,0.0046,0.0044,0.0042,0.0013,0.0003,-0.0025,-0.0007,0.001,-0.0007,-0.0007,-0.0057,-0.0062,-0.0071,-0.0112,-0.0116,-0.0102,-0.0104,-0.0105,-0.0106,0,0,0,0,0,0,0,0.0071,0.0068,0.0044,0.0045,0.0043,0.003,0.0027,-0.0002,-0.0024,0.0008,0.0007,0.0004,-0.0058,-0.0068,-0.0073,-0.0117,-0.0102,-0.0105,-0.0107,-0.0108,-0.0172,-0.0172,0,0,0,0,0,0,0.0079,0.007,0.0045,0.0043,0.0057,0.003,0.0026,0.0021,-0.0023,-0.0029,0.0005,0.0003,-0.0062,-0.0069,-0.0076,-0.0083,-0.0105,-0.0108,-0.011,-0.0172,-0.0172,-0.0172,0,0,0,0,0,0,0.008,0.0078,0.0047,0.0056,0.0052,0.003,0.0025,0.0021,0.0015,-0.0025,-0.0032,0.0003,-0.0063,-0.0071,-0.0093,-0.0087,-0.0109,-0.0112,-0.0172,-0.0172,-0.0172,-0.0107,0,0,0,0,0,0,0.0081,0.0078,0.0078,0.0057,0.0052,0.0042,0.0025,0.002,0.0014,0.0012,-0.0029,-0.0036,-0.0063,-0.0088,-0.0096,-0.0091,-0.0115,-0.0173,-0.0172,-0.0172,-0.0109,-0.0104,-0.01,0,0,0,0,0,0.0083,0.0087,0.0079,0.0076,0.0052,0.0043,0.0039,0.0022,0.0014,0.0015,-0.001,-0.0035,-0.0093,-0.0091,-0.01,-0.0096,-0.0173,-0.0172,-0.0172,-0.0111,-0.0105,-0.01,0,0,0,0,0,0,0.0105,0.0084,0.0074,0.0073,0.0061,0.0039,0.0038,0.0026,0.0007,0.0005,-0.0033,-0.0042,-0.0059,-0.0088,-0.0084,-0.0114,-0.0137,-0.0139,-0.0088,-0.0083,-0.0078,-0.0059,-0.0117,0,0,0,0,0,0.0109,0.0105,0.0085,0.0086,0.0081,0.006,0.0054,0.0044,0.0024,0.0016,-0.0011,-0.0041,-0.0066,-0.0081,-0.0109,-0.0125,-0.015,-0.0129,-0.0125,-0.0121,-0.0112,-0.014,-0.0137,-0.0171,-0.0171,-0.0171,0,0,0.0119,0.0107,0.0105,0.009,0.0079,0.0081,0.0056,0.0052,0.0055,0.0009,0.0004,-0.0027,-0.0067,-0.0082,-0.0093,-0.0104,-0.0125,-0.012,-0.0116,-0.011,-0.0139,-0.0136,-0.0133,-0.0171,-0.0171,-0.0171,0,0,0.0141,0.0125,0.0131,0.0124,0.0111,0.0099,0.0101,0.0082,0.0073,0.0062,0.0032,0.0009,-0.0032,-0.0054,-0.0072,-0.0061,-0.01,-0.0075,-0.0037,-0.0064,-0.0061,-0.0059,-0.0086,-0.0087,-0.0073,-0.0072,-0.0072,0,0.0154,0.0157,0.0133,0.0139,0.0141,0.0112,0.0126,0.0112,0.0089,0.0087,0.0068,0.0018,-0.0016,-0.0031,-0.0027,-0.005,-0.0072,-0.0051,-0.0056,-0.0055,-0.0054,-0.0083,-0.0084,-0.0069,-0.007,-0.007,-0.007,0,0.0181,0.0185,0.0189,0.0187,0.0186,0.0192,0.0174,0.017,0.0154,0.014,0.0121,0.0075,0.0048,0.003,0.0004,-0.0004,-0.0025,-0.0046,-0.0065,-0.0046,-0.0078,-0.0081,-0.0065,-0.0066,-0.0067,-0.0068,0,0,0.0207,0.0208,0.021,0.0223,0.0213,0.0218,0.0222,0.022,0.0231,0.0195,0.0201,0.0153,0.0128,0.0106,0.0068,0.0043,0.0028,0.0008,0.0005,-0.0011,-0.0031,-0.0036,-0.004,0.0007,0.0007,0.0007,-0.0056,0,0.0237,0.0264,0.0255,0.0286,0.0301,0.0282,0.0291,0.0285,0.0271,0.0268,0.0217,0.0205,0.0157,0.0147,0.0115,0.0053,0.0024,0.0047,-0.0055,-0.0058,-0.0058,-0.0042,-0.002,-0.0073,-0.0059,-0.006,-0.006,0,0.0268,0.0283,0.0318,0.0341,0.0346,0.0358,0.0374,0.0383,0.0367,0.0353,0.0329,0.0288,0.025,0.0203,0.0111,0.0129,0.0058,0.0003,-0.0001,-0.0029,-0.0068,-0.0092,-0.008,-0.0066,-0.0065,-0.0065,-0.0064,0,0.0303,0.0329,0.036,0.0367,0.0384,0.0398,0.0412,0.041,0.043,0.0414,0.0418,0.0359,0.0335,0.0243,0.0135,0.0122,0.003,-0.0005,-0.0081,-0.0083,-0.0095,-0.0097,-0.0074,-0.0074,-0.0074,-0.0074,-0.0073,0,0.0337,0.0365,0.0379,0.0398,0.0443,0.0443,0.0487,0.0489,0.05,0.0535,0.047,0.0474,0.0344,0.0275,0.0163,0.0043,0.005,-0.0067,-0.0095,-0.0072,-0.0071,-0.0091,-0.0092,-0.0076,-0.0075,-0.0075,-0.0075,0,0.0371,0.0378,0.0419,0.0446,0.046,0.0496,0.0543,0.0576,0.0577,0.0619,0.0618,0.0563,0.0476,0.034,0.0195,0.0089,-0.0033,-0.0082,-0.0043,-0.0065,-0.014,-0.0137,-0.0176,-0.0176,-0.0177,-0.0177,-0.0178,0,0.0388,0.0411,0.0457,0.0489,0.0504,0.0553,0.0591,0.0614,0.0657,0.0679,0.0706,0.0637,0.0601,0.0387,0.0193,0.0001,-0.0031,-0.0111,-0.0135,-0.0125,-0.0148,-0.0145,-0.0141,-0.0132,-0.0131,-0.0131,-0.0131,0,0.0424,0.0437,0.0471,0.0535,0.0581,0.0641,0.07,0.0743,0.0781,0.081,0.0843,0.0818,0.0627,0.0445,0.0186,0.0054,-0.0077,-0.0117,-0.0115,-0.0103,-0.0087,-0.0109,-0.0106,-0.0131,-0.0131,-0.0131,-0.0131,-0.0131,0.0449,0.0479,0.052,0.0583,0.0642,0.072,0.0774,0.0841,0.0912,0.0972,0.0947,0.0916,0.0714,0.0387,0.0164,-0.0076,-0.0076,-0.0165,-0.0164,-0.0163,-0.014,-0.0125,-0.0173,-0.0173,-0.0174,-0.0174,-0.0174,0,0.0478,0.0511,0.0567,0.064,0.0707,0.0738,0.084,0.0895,0.0985,0.1044,0.1068,0.0876,0.0672,0.0432,0.008,-0.0128,-0.0147,-0.0196,-0.0173,-0.0171,-0.0171,-0.0147,-0.0183,-0.0183,-0.0184,-0.0185,0,0,0.0494,0.0544,0.0569,0.0674,0.0733,0.0827,0.0889,0.0977,0.1041,0.1093,0.1084,0.105,0.0757,0.0504,0.0221,0.0019,-0.0028,-0.0022,0.0008,0.0071,0.0075,-0.013,-0.0089,0,0,0,0,0]}],[{"header":{"parameterUnit":"m.s-1","parameterCategory":2,"la1":30.2991,"la2":30.254,"lo1":-89.0895,"lo2":-89.0444,"dy":0.0017,"dx":0.0017,"nx":28,"ny":28,"refTime":"2024-05-30T03:00:00:Z","depth":"4","parameterNumber":2,"parameterNumberName":"U-component_of_CURRENTS"},"data":[0,0,0,0,0,0,0,0,0,0,0,0,0,0,0,0,0,0,0,0,0,0,0,0,0,0,0,0,0,0,0,0,0,0,0,0,0,0,0,0,0,0,0,0,0,0,0,0,0,0,0,0,0,0,0,0,0,0,0.1262,0.1263,0,0.1334,0.1335,0.1335,0.1386,0.1386,0.1387,0.1388,0.141,0.141,0.141,0,0,0,0,0,0,0,0,0,0,0,0,0,0.118,0.1181,0.1262,0.1263,0.1264,0.1334,0.1335,0.1335,0.1385,0.1386,0.1387,0.1388,0.141,0.141,0.141,0,0,0,0,0,0,0,0,0,0,0,0,0,0.1227,0.1182,0.1261,0.13,0.1304,0.1334,0.1335,0.1336,0.1385,0.1386,0.1387,0.1388,0.141,0.141,0.141,0.1389,0,0,0.141,0.141,0,0,0,0,0,0,0,0,0.1224,0.123,0.1293,0.1297,0.1302,0.1355,0.1315,0.1352,0.1385,0.1351,0.1388,0.1389,0.1389,0.139,0.1398,0.139,0.1391,0.141,0.141,0.141,0.141,0,0,0,0,0,0,0,0.1221,0.1227,0.1287,0.1294,0.13,0.1319,0.1326,0.1322,0.1359,0.1354,0.1359,0.1372,0.1391,0.1398,0.1398,0.1391,0.141,0.141,0.141,0.141,0.1459,0.146,0,0,0,0,0,0,0.1217,0.1224,0.1285,0.1289,0.1269,0.132,0.1328,0.1334,0.1361,0.1367,0.1371,0.1374,0.1397,0.1398,0.1399,0.1457,0.141,0.141,0.141,0.1457,0.1459,0.1461,0,0,0,0,0,0,0.1215,0.1222,0.1282,0.1261,0.1271,0.132,0.1327,0.1335,0.1375,0.1375,0.138,0.1407,0.1398,0.14,0.1425,0.1455,0.141,0.141,0.1456,0.1458,0.146,0.1521,0,0,0,0,0,0,0.1212,0.122,0.1235,0.1261,0.1272,0.1319,0.1327,0.1336,0.1381,0.1387,0.1406,0.1408,0.1399,0.1426,0.1425,0.1455,0.141,0.1454,0.1457,0.1459,0.1517,0.1524,0.1531,0,0,0,0,0,0.1209,0.1221,0.1235,0.1243,0.1286,0.132,0.1327,0.1363,0.1382,0.1402,0.142,0.1409,0.1442,0.1427,0.1426,0.1456,0.1453,0.1456,0.1459,0.1514,0.1523,0.1531,0,0,0,0,0,0,0.1202,0.1228,0.1244,0.1267,0.1301,0.133,0.1358,0.138,0.141,0.1425,0.1421,0.1423,0.1459,0.1448,0.1431,0.1478,0.1447,0.145,0.1489,0.1498,0.1505,0.1508,0.141,0,0,0,0,0,0.1205,0.1217,0.1251,0.1274,0.1295,0.1332,0.1356,0.1382,0.1408,0.1425,0.1439,0.1454,0.1465,0.1475,0.1481,0.1501,0.1497,0.1522,0.1529,0.1535,0.1538,0.156,0.1569,0.147,0.147,0.147,0,0,0.121,0.1227,0.1237,0.1274,0.1305,0.1335,0.1349,0.1396,0.1427,0.1419,0.147,0.148,0.1477,0.1506,0.152,0.1503,0.1563,0.1539,0.1544,0.1544,0.1564,0.1573,0.1582,0.1472,0.1472,0.1472,0,0,0.1219,0.1244,0.1258,0.1288,0.1339,0.136,0.1381,0.1428,0.1459,0.1501,0.1507,0.1537,0.1555,0.1561,0.1564,0.1611,0.1601,0.162,0.1657,0.1678,0.1686,0.1693,0.1709,0.1717,0.1622,0.1622,0.1622,0,0.1233,0.1249,0.1272,0.1298,0.1329,0.1374,0.1407,0.1439,0.1491,0.1517,0.1527,0.1578,0.158,0.1608,0.1632,0.1627,0.1637,0.1624,0.1687,0.1694,0.17,0.1715,0.1723,0.1625,0.1625,0.1625,0.1624,0,0.1243,0.1273,0.129,0.1331,0.1364,0.1406,0.1451,0.1495,0.1539,0.1568,0.1626,0.1638,0.1668,0.1677,0.167,0.1719,0.1712,0.1695,0.1665,0.1714,0.1726,0.1733,0.163,0.1629,0.1628,0.1627,0,0,0.1239,0.1288,0.1299,0.1325,0.1391,0.1417,0.1475,0.1532,0.1579,0.163,0.1684,0.1715,0.1738,0.1743,0.1746,0.1766,0.1824,0.1758,0.1758,0.1773,0.1878,0.1771,0.1768,0.1824,0.1825,0.1826,0.1872,0,0.1253,0.129,0.1317,0.1373,0.1401,0.1459,0.1507,0.1565,0.1622,0.1684,0.1714,0.1767,0.1758,0.179,0.181,0.1825,0.1846,0.1813,0.183,0.183,0.1727,0.1773,0.1831,0.1877,0.1879,0.188,0.1881,0,0.1255,0.1281,0.1328,0.1393,0.1415,0.1459,0.1549,0.1599,0.1685,0.1734,0.1791,0.1823,0.1875,0.1858,0.1906,0.1891,0.1894,0.1895,0.1897,0.1777,0.1735,0.1816,0.1894,0.1893,0.1892,0.1891,0.189,0,0.1224,0.129,0.1326,0.135,0.143,0.1475,0.153,0.162,0.1669,0.1777,0.1823,0.1887,0.1929,0.195,0.1965,0.195,0.2005,0.1977,0.1878,0.1871,0.1927,0.1919,0.2004,0.2004,0.2004,0.2004,0.2004,0,0.1213,0.1248,0.132,0.1342,0.1402,0.1468,0.1548,0.1616,0.1711,0.1768,0.185,0.1894,0.1957,0.1992,0.1994,0.1961,0.2031,0.1892,0.1876,0.1952,0.1947,0.1932,0.1924,0.2006,0.2005,0.2005,0.2005,0,0.117,0.1218,0.1264,0.1353,0.1388,0.1435,0.1548,0.1595,0.1701,0.1778,0.1816,0.1916,0.1969,0.2007,0.2048,0.1982,0.1973,0.194,0.2034,0.2022,0.1817,0.1811,0.1832,0.1828,0.1825,0.1823,0.1821,0,0.1147,0.1166,0.1258,0.1289,0.1338,0.1418,0.1468,0.1582,0.163,0.1772,0.1793,0.1889,0.1942,0.1905,0.1964,0.1961,0.1931,0.1908,0.1846,0.1817,0.1801,0.1799,0.1797,0.1816,0.1816,0.1815,0.1814,0,0.1105,0.1147,0.1183,0.1243,0.1302,0.1353,0.1437,0.1457,0.1585,0.1688,0.1727,0.1755,0.1807,0.1836,0.1848,0.1841,0.1915,0.1877,0.1882,0.1823,0.1799,0.1785,0.1786,0.1804,0.1805,0.1806,0.1807,0,0.1078,0.1087,0.1138,0.1182,0.1246,0.1269,0.1322,0.1372,0.1428,0.1577,0.1592,0.1694,0.1794,0.1774,0.1791,0.1777,0.174,0.1663,0.1678,0.169,0.1621,0.1568,0.1495,0,0,0,0,0,0.1042,0.1039,0.1072,0.1109,0.1164,0.1203,0.1289,0.1342,0.146,0.1444,0.1512,0.1558,0.1586,0.1641,0.1596,0.1733,0.175,0.1672,0.1669,0.1748,0.176,0.1692,0,0,0,0,0,0,0.1016,0.1042,0.1042,0.1036,0.1048,0.1098,0.1147,0.1226,0.1223,0.1347,0.1369,0.1463,0.1513,0.1596,0.1567,0.1583,0.1547,0.174,0.1735,0.1742,0.1752,0.1762,0.1696,0,0,0,0,0]},{"header":{"parameterUnit":"m.s-1","parameterCategory":2,"la1":30.2991,"la2":30.254,"lo1":-89.0895,"lo2":-89.0444,"dy":0.0017,"dx":0.0017,"nx":28,"ny":28,"refTime":"2024-05-30T03:00:00:Z","depth":"4","parameterNumber":3,"parameterNumberName":"V-component_of_CURRENTS"},"data":[0,0,0,0,0,0,0,0,0,0,0,0,0,0,0,0,0,0,0,0,0,0,0,0,0,0,0,0,0,0,0,0,0,0,0,0,0,0,0,0,0,0,0,0,0,0,0,0,0,0,0,0,0,0,0,0,0,0,0.0064,0.0064,0,0.0035,0.0035,0.0035,0.0016,0.0016,0.0015,0.0015,-0.0038,-0.0039,-0.0041,0,0,0,0,0,0,0,0,0,0,0,0,0,0.0085,0.0085,0.0064,0.0064,0.0063,0.0035,0.0035,0.0035,0.0016,0.0016,0.0015,0.0015,-0.0038,-0.0039,-0.0041,0,0,0,0,0,0,0,0,0,0,0,0,0,0.0068,0.0085,0.0064,0.0051,0.005,0.0036,0.0035,0.0034,0.0016,0.0016,0.0015,0.0015,-0.0037,-0.0039,-0.0041,-0.0051,0,0,-0.0047,-0.0048,0,0,0,0,0,0,0,0,0.0069,0.0067,0.0053,0.0052,0.005,0.003,0.0023,0.0005,0.0016,0.0028,0.0015,0.0015,-0.0017,-0.0021,-0.0027,-0.0054,-0.0056,-0.0047,-0.0049,-0.0049,-0.005,0,0,0,0,0,0,0,0.007,0.0068,0.0052,0.0053,0.0051,0.0041,0.0038,0.0019,0.0005,0.0027,0.0025,0.0023,-0.0018,-0.0025,-0.0028,-0.0057,-0.0047,-0.0049,-0.005,-0.0051,-0.0094,-0.0094,0,0,0,0,0,0,0.0076,0.0069,0.0053,0.0051,0.006,0.0041,0.0038,0.0036,0.0006,0.0002,0.0024,0.0023,-0.0021,-0.0026,-0.003,-0.0036,-0.0049,-0.0051,-0.0053,-0.0094,-0.0094,-0.0094,0,0,0,0,0,0,0.0076,0.0075,0.0054,0.006,0.0057,0.0041,0.0038,0.0035,0.0031,0.0004,-0.0001,0.0022,-0.0021,-0.0027,-0.0041,-0.0039,-0.0052,-0.0054,-0.0094,-0.0094,-0.0094,-0.0054,0,0,0,0,0,0,0.0077,0.0075,0.0076,0.006,0.0057,0.005,0.0038,0.0035,0.003,0.0028,0.0001,-0.0004,-0.0022,-0.0038,-0.0043,-0.0042,-0.0056,-0.0095,-0.0094,-0.0094,-0.0055,-0.0052,-0.005,0,0,0,0,0,0.0078,0.0081,0.0076,0.0075,0.0059,0.005,0.0047,0.0035,0.003,0.003,0.0013,-0.0003,-0.0041,-0.004,-0.0046,-0.0045,-0.0095,-0.0094,-0.0094,-0.0056,-0.0053,-0.005,0,0,0,0,0,0,0.0093,0.0079,0.0074,0.0073,0.0064,0.0047,0.0047,0.0038,0.0025,0.0024,-0.0001,-0.0007,-0.0019,-0.0038,-0.0036,-0.0057,-0.0071,-0.0072,-0.004,-0.0037,-0.0035,-0.0022,-0.0057,0,0,0,0,0,0.0096,0.0095,0.0081,0.0081,0.0078,0.0063,0.0058,0.005,0.0037,0.0031,0.0013,-0.0007,-0.0024,-0.0034,-0.0052,-0.0064,-0.0085,-0.0068,-0.0065,-0.0063,-0.0057,-0.0089,-0.0088,-0.0094,-0.0094,-0.0094,0,0,0.0103,0.0095,0.0095,0.0084,0.0076,0.0078,0.006,0.0056,0.0058,0.0027,0.0023,0.0002,-0.0025,-0.0035,-0.0043,-0.0051,-0.0072,-0.0063,-0.006,-0.0056,-0.0089,-0.0088,-0.0088,-0.0094,-0.0094,-0.0094,0,0,0.0117,0.0109,0.0113,0.0108,0.0098,0.009,0.0091,0.0076,0.007,0.0062,0.0042,0.0024,-0.0001,-0.002,-0.0032,-0.0027,-0.0056,-0.0034,-0.0011,-0.0042,-0.0042,-0.0042,-0.0065,-0.0067,-0.0034,-0.0034,-0.0034,0,0.0126,0.0129,0.0113,0.0117,0.0119,0.0099,0.0108,0.0098,0.0081,0.0078,0.0067,0.0031,0.0006,-0.0008,-0.0005,-0.002,-0.0039,-0.002,-0.0038,-0.0038,-0.0039,-0.0063,-0.0066,-0.0032,-0.0032,-0.0032,-0.0032,0,0.0142,0.0147,0.015,0.015,0.0149,0.0152,0.014,0.0137,0.0126,0.0115,0.0099,0.0065,0.0045,0.0031,0.0015,-0.0,-0.0012,-0.0029,-0.0044,-0.0036,-0.0062,-0.0066,-0.0029,-0.0029,-0.003,-0.0031,0,0,0.0157,0.0161,0.0163,0.0173,0.0167,0.017,0.0173,0.017,0.0177,0.015,0.0151,0.0115,0.0096,0.008,0.0052,0.0024,0.0001,0.0001,-0.0002,-0.0018,-0.0061,-0.0055,-0.0059,-0.0019,-0.002,-0.002,-0.0076,0,0.0176,0.0194,0.0191,0.0214,0.0224,0.0213,0.022,0.0214,0.0204,0.0199,0.0158,0.0148,0.0114,0.0107,0.0073,0.0022,-0.0008,0.0018,-0.007,-0.0073,-0.0065,-0.0063,-0.0022,-0.0079,-0.008,-0.0081,-0.0081,0,0.0193,0.0205,0.023,0.025,0.0254,0.0265,0.0276,0.0283,0.0268,0.0257,0.0235,0.0205,0.0167,0.0134,0.0049,0.0068,0.0011,-0.0036,-0.0039,-0.005,-0.0074,-0.0091,-0.0089,-0.0088,-0.0088,-0.0087,-0.0087,0,0.0212,0.0234,0.0257,0.0263,0.0279,0.0291,0.0304,0.0302,0.0316,0.03,0.0302,0.0247,0.0225,0.0145,0.0057,0.0052,-0.0041,-0.0064,-0.0115,-0.0115,-0.0122,-0.0122,-0.0129,-0.0129,-0.0128,-0.0128,-0.0128,0,0.023,0.0252,0.027,0.0284,0.0319,0.0322,0.0355,0.0358,0.0366,0.0388,0.0339,0.0335,0.0227,0.0163,0.0073,-0.0026,-0.0031,-0.0107,-0.0129,-0.0104,-0.01,-0.0125,-0.0124,-0.013,-0.013,-0.0129,-0.0129,0,0.0246,0.0256,0.0289,0.0314,0.0329,0.0357,0.0399,0.0422,0.0425,0.0452,0.0451,0.0401,0.032,0.0209,0.008,0.0004,-0.0099,-0.0135,-0.0088,-0.0107,-0.0158,-0.0154,-0.0198,-0.0199,-0.0199,-0.0199,-0.0199,0,0.0254,0.027,0.0314,0.034,0.0356,0.0398,0.0428,0.045,0.0479,0.0493,0.0507,0.0446,0.0396,0.0227,0.0099,-0.0071,-0.01,-0.0155,-0.0168,-0.0149,-0.0166,-0.0161,-0.0157,-0.0199,-0.02,-0.02,-0.02,0,0.027,0.0285,0.0312,0.0365,0.0406,0.0454,0.0502,0.0527,0.0556,0.056,0.0557,0.0474,0.0382,0.024,0.0112,-0.0015,-0.012,-0.0158,-0.0159,-0.0172,-0.0151,-0.0166,-0.0162,-0.02,-0.02,-0.02,-0.02,0,0.0282,0.0302,0.0337,0.0386,0.0441,0.0496,0.052,0.0555,0.0584,0.0601,0.0598,0.0502,0.0446,0.0269,0.015,0.003,-0.0011,-0.0061,-0.0067,-0.0068,-0.0018,0.0029,0.0019,0,0,0,0,0,0.0292,0.0314,0.0357,0.041,0.0466,0.0501,0.0562,0.0582,0.061,0.0618,0.0613,0.0531,0.0365,0.0292,0.0173,0.0125,-0.0045,-0.0021,-0.0109,-0.0204,-0.0204,-0.0167,0,0,0,0,0,0,0.0298,0.0335,0.0353,0.0421,0.0463,0.0527,0.057,0.0593,0.0596,0.0609,0.0525,0.0492,0.0329,0.0435,0.0169,0.0133,0.0058,-0.0096,-0.0099,-0.0205,-0.0204,-0.0203,-0.0165,0,0,0,0,0]}]]